Spokane Felts, WA
on Sunday, November 18, 2012

Sunday
Previous Day Next Day
Daily Summary
 ActualAverageRecord
Temperature
Mean Temperature °F 36°F  
Max Temperature 49°F 43°F 57°F (2003)
Min Temperature 35°F 30°F 17°F (2014)
Degree Days
Heating Degree Days 23 29  
Month to date heating degree days 413 465  
Since 1 July heating degree days 972 1202  
Cooling Degree Days 0 0  
Month to date cooling degree days 0 0  
Year to date cooling degree days 509 406  
Moisture
Dew Point 32°F   
Average Humidity 68    
Maximum Humidity 85    
Minimum Humidity 50    
Precipitation
Precipitation T in 0.08 in 0.43 in (2010)
Month to date precipitation 1.35 1.28  
Year to date precipitation 16.94 14.23  
Wind
Wind Speed 7 mph   
Max Wind Speed 23 mph   
Max Gust Speed 32 mph   
Visibility 10 miles   
Events Rain   

Key: T is trace of precipitation, MM is missing value
Source: NWS Daily Summary
Time(PST)TemperatureDew PointHumidity Pressure Visibility Wind DirectionWind SpeedGust SpeedPrecipitationEvents Conditions
12:06 AM 41.0°F 35.6°F 81% 29.72 in 10.0 miles SW 18.4 mph 26.5 mph 0.00 in Rain Light Rain
12:22 AM 39.2°F 35.6°F 87% 29.71 in 10.0 miles SSW 15.0 mph 21.9 mph 0.00 in   Overcast
12:32 AM 39.2°F 33.8°F 81% 29.73 in 10.0 miles SW 17.3 mph 23.0 mph 0.00 in   Overcast
12:48 AM 39.2°F 35.6°F 87% 29.74 in 10.0 miles SW 13.8 mph - 0.00 in   Overcast
12:53 AM 39.9°F 34.0°F 79% 29.74 in 10.0 miles SW 13.8 mph - 0.00 in   Overcast
1:53 AM 39.9°F 35.1°F 83% 29.77 in 10.0 miles SW 13.8 mph - 0.00 in   Overcast
2:53 AM 39.9°F 34.0°F 79% 29.81 in 10.0 miles SW 10.4 mph - N/A   Overcast
3:48 AM 39.2°F 33.8°F 81% 29.82 in 10.0 miles SW 10.4 mph - N/A   Scattered Clouds
3:53 AM 37.9°F 32.0°F 79% 29.84 in 10.0 miles WSW 9.2 mph - N/A   Partly Cloudy
4:53 AM 37.9°F 32.0°F 79% 29.88 in 10.0 miles WSW 5.8 mph - N/A   Clear
5:53 AM 37.0°F 30.9°F 79% 29.89 in 10.0 miles Calm Calm - N/A   Clear
6:53 AM 36.0°F 30.9°F 82% 29.91 in 10.0 miles Calm Calm - N/A   Clear
7:53 AM 37.0°F 30.9°F 79% 29.92 in 10.0 miles Variable 3.5 mph - N/A   Clear
8:53 AM 39.9°F 30.9°F 70% 29.91 in 10.0 miles East 8.1 mph - N/A   Scattered Clouds
9:53 AM 44.1°F 30.0°F 58% 29.93 in 10.0 miles SSW 6.9 mph - N/A   Partly Cloudy
10:53 AM 45.0°F 30.0°F 56% 29.94 in 10.0 miles Variable 4.6 mph - N/A   Overcast
11:53 AM 46.0°F 30.9°F 56% 29.93 in 10.0 miles South 5.8 mph - N/A   Overcast
12:53 PM 46.0°F 30.9°F 56% 29.92 in 10.0 miles South 5.8 mph - N/A   Overcast
1:53 PM 48.0°F 30.9°F 52% 29.91 in 10.0 miles South 9.2 mph - N/A   Overcast
2:53 PM 46.9°F 30.0°F 52% 29.90 in 10.0 miles South 9.2 mph - N/A   Overcast
3:53 PM 46.0°F 30.9°F 56% 29.91 in 10.0 miles Variable 3.5 mph - N/A   Overcast
4:53 PM 45.0°F 32.0°F 60% 29.91 in 10.0 miles Calm Calm - N/A   Overcast
5:53 PM 45.0°F 30.0°F 56% 29.91 in 10.0 miles Variable 3.5 mph - N/A   Overcast
6:53 PM 43.0°F 30.0°F 60% 29.90 in 10.0 miles Variable 3.5 mph - N/A   Overcast
7:53 PM 42.1°F 30.9°F 65% 29.88 in 10.0 miles Calm Calm - N/A   Clear
8:53 PM 43.0°F 30.0°F 60% 29.87 in 10.0 miles Variable 4.6 mph - N/A   Clear
9:53 PM 45.0°F 28.9°F 53% 29.86 in 10.0 miles SE 5.8 mph - N/A   Mostly Cloudy
10:53 PM 46.0°F 28.9°F 51% 29.85 in 10.0 miles SE 16.1 mph 23.0 mph 0.00 in Rain Light Rain
11:53 PM 46.0°F 30.0°F 54% 29.88 in 10.0 miles South 12.7 mph 19.6 mph 0.00 in Rain Light Rain
Moon Phase
Nov. 18 Nov. 20 Nov. 28 Dec. 06 Dec. 13
Sunrise:06:59 AM (PST) Moon Rise:11:24 AM (PST)11/18
Sunset:04:08 PM (PST) Moon Set:09:40 PM (PST)11/18

Copyright © 2014 The Weather Underground, Inc.